7 * 24
多渠道服务支持
STARLINK-32736 是 SpaceX Starlink 卫星互联网项目中的一个组网卫星,属于低轨卫星通信系统的一部分。该卫星由 SpaceX 研发并发射,旨在为全球用户提供高速、低延迟的互联网服务。它运行在约 550 公里的近地轨道,与其他 Starlink 卫星协同工作,构建覆盖全球的宽带网络。该系统特别关注偏远和网络基础设施薄弱地区的互联网接入。STARLINK-32736 的部署有助于提升 Starlink 网络的稳定性和容量,推动全球互联网普及。
美国
(US)
| 数据来源 | 国际轨道数据 |
| 星历时间: | 2025-11-07T00:14:49+0800 1天前 查看轨道信息 |
| 半长轴: | 6853.211km |
| 偏心率: | 0.000319 |
| 轨道倾角: | 53.158° |
| 近地点辐角 | 115.152° |
| 升交点赤经 | 186.756° |
| 平近点角 | 244.982° |
| 近地点: | 472.889km |
| 远地点: | 477.263km |
| 周期: | 94.102分钟 |
| 每日圈数: | 15.302474 |